Acarobasi, Turkey

3:00 PM +03 on November 20, 2017 (GMT +0300)
Oguzeli | | Change Station

Elev 2805 ft 37.08 °N, 37.37 °E | Updated 40 minutes ago

Overcast
Overcast
59 °F
Feels Like 59 °F
N
7
Wind Variable Wind from East

Today
High -- | Low -- °F
--% Chance of Precip.
Yesterday
High -- | Low -- °F
Precip. -- in
Pressure 29.95 in
Visibility 6.2 miles
Clouds Scattered Clouds 3000 ft
Mostly Cloudy 9000 ft
Dew Point 45 °F
Humidity 59%
Rainfall 0.00 in
Snow Depth Not available.
7:15 AM 5:18 PM
Waxing Crescent, 4% visible
METAR LTAJ 201120Z 10006KT 070V140 9999 SCT030 BKN090 15/07 Q1014 NOSIG RMK RWY10 10005KT 060V160
Pressure 29.95 in
Visibility 6.2 miles
Clouds Scattered Clouds 3000 ft
Mostly Cloudy 9000 ft
Dew Point 45 °F
Humidity 59%
Rainfall 0.00 in
Snow Depth Not available.
7:15 AM 5:18 PM
Waxing Crescent, 4% visible
METAR LTAJ 201120Z 10006KT 070V140 9999 SCT030 BKN090 15/07 Q1014 NOSIG RMK RWY10 10005KT 060V160

Get Severe Weather Alerts

Thanks for signing up!

Be on the lookout for a verification email in your inbox.

You'll start receiving the daily forecast at 6 AM.

×

10-Day Weather Forecast

×

Almanac

Astronomy

Nov. 20, 2017 Rise Set
Actual Time
Civil Twilight
Nautical Twilight
Astronomical Twilight
Moon
Length of Visible Light
Length of Day
Tomorrow will be .
, % of the Moon is Illuminated

Today's Extremes

Country Highs Country Lows

Community

WunderPhotos

Category 6

Welcome to Category 6. This is the collective home for Weather Underground's featured writeups by Dr. Jeff Masters (right), Bob Henson (left), Chris Burt, and other regular contributors.

Nearby

Air Quality

  Air Quality AQ Index Pollutant
Not available.

Snow Depth

Station Depth Elevation

Earthquake Activity

City Distance Mag. Time & Date
Minimum magnitude displayed is 2.5.

Coastal Water Temperatures

Place Temperature

Stations

Nearby Weather Stations

Station Location Temp. Windchill Dew Point Humidity Wind Precip. Elev Updated Type